Weather in Vasil'evskoe

Russia / Vologda Oblast     60°55′45″N   46°27′51″E
temp.,
°C
wind,
m/s
gust,
m/s
humid.,
%
clouds,
%
prec.,
mm/h
press.,
hPa
HPBL,
m
10 august, wed
wed1000:00+14nne2768100 0.0 1023167
03:00+14ne236893 0.0 102272
06:00+14nne127279 0.0 1021126
09:00+16ne356859 0.0 1022879
12:00+20nne464641 0.0 10211802
15:00+20nne464569 0.0 10211749
18:00+16nnw247296 0.1 1021193
21:00+12nnw229297 0.3 102250
11 august, thu
thu1100:00+12nw1294100 0.7 102248
03:00+11wnw259675 0.7 1022106
06:00+12w26925 0.0 1023198
09:00+18w35645 0.0 1023669
12:00+21w45415 0.0 10212049
15:00+22w46395 0.0 10202218
18:00+20wsw4853100 0.0 1019682
21:00+14sw31075100 0.0 1019195
12 august, fri
fri1200:00+15sw3126998 0.0 1018403
03:00+15sw41372100 0.0 1017454
06:00+15wsw4127273 0.0 1016548
09:00+20w586164 0.0 1016803
12:00+19w496736 0.1 1016847
15:00+23w5105160 0.1 10152065
18:00+22w495410 0.0 10151329
21:00+15w237324 0.0 101655
13 august, sat
sat1300:00+16nw295466 0.0 1018430
03:00+12wnw38760 0.0 1019237
06:00+12nw27800 0.0 1021244
09:00+17nnw35502 0.0 10221186
12:00+20nw343893 0.0 10221807
15:00+20nw353657 0.0 10222075
18:00+18nnw2257100 0.0 102139
21:00+12w11650 0.0 102211
14 august, sun
sun1400:00+11w11670 0.0 102311
03:00+9w11731 0.0 102310
06:00+12sw116949 0.0 102449
09:00+18ssw244881 0.0 1023536
12:00+21ssw354570 0.0 10221028
15:00+19ssw3658100 0.0 1021510
18:00+20ssw3768100 0.0 1020588
21:00+17s41076100 0.0 1019289